#Datum;Uhrzeit;WR;Pac;DaySum;Status;WR;Pac;DaySum;Status;Pdc1;Udc;Temp;WR;Pac;DaySum;Status;Pdc1;Udc;Temp;WR;Pac;DaySum;Status;Pdc1;Udc;Temp;WR;Pac;DaySum;Status;Pdc1;Pdc2;Udc1;Udc2;Temp;WR;Pac;DaySum;Status;Pdc1;Pdc2;Udc1;Udc2;Temp;WR;Pac;DaySum;Status;Pdc1;Udc;Temp;WR;Pac;DaySum;Status;Pdc1;Udc;Temp;WR;Pac;DaySum;Status;Pdc1;Udc;Temp
15.11.21;23:55:00;1;412;20121;0;2;0;11754;0;0;0;0;3;0;7859;0;0;0;0;4;0;10492;0;0;0;0;5;0;27150;0;0;0;0;0;0;6;0;20477;0;0;0;0;0;0;7;0;19489;0;0;0;0;8;0;19215;0;0;0;0;9;0;10286;0;0;0;0
15.11.21;23:50:00;1;419;20087;0;2;0;11754;0;0;0;0;3;0;7859;0;0;0;0;4;0;10492;0;0;0;0;5;0;27150;0;0;0;0;0;0;6;0;20477;0;0;0;0;0;0;7;0;19489;0;0;0;0;8;0;19215;0;0;0;0;9;0;10286;0;0;0;0
15.11.21;23:45:00;1;417;20052;0;2;0;11754;0;0;0;0;3;0;7859;0;0;0;0;4;0;10492;0;0;0;0;5;0;27150;0;0;0;0;0;0;6;0;20477;0;0;0;0;0;0;7;0;19489;0;0;0;0;8;0;19215;0;0;0;0;9;0;10286;0;0;0;0
15.11.21;23:40:00;1;380;20017;0;2;0;11754;0;0;0;0;3;0;7859;0;0;0;0;4;0;10492;0;0;0;0;5;0;27150;0;0;0;0;0;0;6;0;20477;0;0;0;0;0;0;7;0;19489;0;0;0;0;8;0;19215;0;0;0;0;9;0;10286;0;0;0;0
15.11.21;23:35:00;1;380;19985;0;2;0;11754;0;0;0;0;3;0;7859;0;0;0;0;4;0;10492;0;0;0;0;5;0;27150;0;0;0;0;0;0;6;0;20477;0;0;0;0;0;0;7;0;19489;0;0;0;0;8;0;19215;0;0;0;0;9;0;10286;0;0;0;0
15.11.21;23:30:00;1;496;19953;0;2;0;11754;0;0;0;0;3;0;7859;0;0;0;0;4;0;10492;0;0;0;0;5;0;27150;0;0;0;0;0;0;6;0;20477;0;0;0;0;0;0;7;0;19489;0;0;0;0;8;0;19215;0;0;0;0;9;0;10286;0;0;0;0
15.11.21;23:25:00;1;548;19911;0;2;0;11754;0;0;0;0;3;0;7859;0;0;0;0;4;0;10492;0;0;0;0;5;0;27150;0;0;0;0;0;0;6;0;20477;0;0;0;0;0;0;7;0;19489;0;0;0;0;8;0;19215;0;0;0;0;9;0;10286;0;0;0;0
15.11.21;23:20:00;1;534;19866;0;2;0;11754;0;0;0;0;3;0;7859;0;0;0;0;4;0;10492;0;0;0;0;5;0;27150;0;0;0;0;0;0;6;0;20477;0;0;0;0;0;0;7;0;19489;0;0;0;0;8;0;19215;0;0;0;0;9;0;10286;0;0;0;0
15.11.21;23:15:00;1;565;19821;0;2;0;11754;0;0;0;0;3;0;7859;0;0;0;0;4;0;10492;0;0;0;0;5;0;27150;0;0;0;0;0;0;6;0;20477;0;0;0;0;0;0;7;0;19489;0;0;0;0;8;0;19215;0;0;0;0;9;0;10286;0;0;0;0
15.11.21;23:10:00;1;559;19773;0;2;0;11754;0;0;0;0;3;0;7859;0;0;0;0;4;0;10492;0;0;0;0;5;0;27150;0;0;0;0;0;0;6;0;20477;0;0;0;0;0;0;7;0;19489;0;0;0;0;8;0;19215;0;0;0;0;9;0;10286;0;0;0;0
15.11.21;23:05:00;1;536;19727;0;2;0;11754;0;0;0;0;3;0;7859;0;0;0;0;4;0;10492;0;0;0;0;5;0;27150;0;0;0;0;0;0;6;0;20477;0;0;0;0;0;0;7;0;19489;0;0;0;0;8;0;19215;0;0;0;0;9;0;10286;0;0;0;0
15.11.21;23:00:00;1;489;19682;0;2;0;11754;0;0;0;0;3;0;7859;0;0;0;0;4;0;10492;0;0;0;0;5;0;27150;0;0;0;0;0;0;6;0;20477;0;0;0;0;0;0;7;0;19489;0;0;0;0;8;0;19215;0;0;0;0;9;0;10286;0;0;0;0
15.11.21;22:55:00;1;498;19641;0;2;0;11754;0;0;0;0;3;0;7859;0;0;0;0;4;0;10492;0;0;0;0;5;0;27150;2;0;0;0;0;0;6;0;20477;2;0;0;0;0;0;7;0;19489;0;0;0;0;8;0;19215;0;0;0;0;9;0;10286;0;0;0;0
15.11.21;22:50:00;1;503;19600;0;2;0;11754;0;0;0;0;3;0;7859;0;0;0;0;4;0;10492;0;0;0;0;5;0;27150;2;0;0;0;0;0;6;0;20477;2;0;0;0;0;0;7;0;19489;0;0;0;0;8;0;19215;0;0;0;0;9;0;10286;0;0;0;0
15.11.21;22:45:00;1;542;19559;0;2;0;11754;0;0;0;0;3;0;7859;0;0;0;0;4;0;10492;0;0;0;0;5;0;27150;2;0;0;0;0;0;6;0;20477;2;0;0;0;0;0;7;0;19489;0;0;0;0;8;0;19215;0;0;0;0;9;0;10286;0;0;0;0
15.11.21;22:40:00;1;583;19514;0;2;0;11754;0;0;0;0;3;0;7859;0;0;0;0;4;0;10492;0;0;0;0;5;0;27150;2;0;0;0;0;0;6;0;20477;2;0;0;0;0;0;7;0;19489;0;0;0;0;8;0;19215;0;0;0;0;9;0;10286;0;0;0;0
15.11.21;22:35:00;1;526;19468;0;2;0;11754;0;0;0;0;3;0;7859;0;0;0;0;4;0;10492;0;0;0;0;5;0;27150;2;0;0;0;0;0;6;0;20477;2;0;0;0;0;0;7;0;19489;0;0;0;0;8;0;19215;0;0;0;0;9;0;10286;0;0;0;0
15.11.21;22:30:00;1;591;19424;0;2;0;11754;0;0;0;0;3;0;7859;0;0;0;0;4;0;10492;0;0;0;0;5;0;27150;2;0;0;0;0;0;6;0;20477;2;0;0;0;0;0;7;0;19489;0;0;0;0;8;0;19215;0;0;0;0;9;0;10286;0;0;0;0
15.11.21;22:25:00;1;623;19375;0;2;0;11754;0;0;0;0;3;0;7859;0;0;0;0;4;0;10492;0;0;0;0;5;0;27150;2;0;0;0;0;0;6;0;20477;2;0;0;0;0;0;7;0;19489;0;0;0;0;8;0;19215;0;0;0;0;9;0;10286;0;0;0;0
15.11.21;22:20:00;1;641;19322;0;2;0;11754;0;0;0;0;3;0;7859;0;0;0;0;4;0;10492;0;0;0;0;5;0;27150;2;0;0;0;0;0;6;0;20477;2;0;0;0;0;0;7;0;19489;0;0;0;0;8;0;19215;0;0;0;0;9;0;10286;0;0;0;0
15.11.21;22:15:00;1;611;19269;0;2;0;11754;0;0;0;0;3;0;7859;0;0;0;0;4;0;10492;0;0;0;0;5;0;27150;2;0;0;0;0;0;6;0;20477;2;0;0;0;0;0;7;0;19489;0;0;0;0;8;0;19215;0;0;0;0;9;0;10286;0;0;0;0
15.11.21;22:10:00;1;580;19219;0;2;0;11754;0;0;0;0;3;0;7859;0;0;0;0;4;0;10492;0;0;0;0;5;0;27150;2;0;0;0;0;0;6;0;20477;2;0;0;0;0;0;7;0;19489;0;0;0;0;8;0;19215;0;0;0;0;9;0;10286;0;0;0;0
15.11.21;22:05:00;1;478;19173;0;2;0;11754;0;0;0;0;3;0;7859;0;0;0;0;4;0;10492;0;0;0;0;5;0;27150;2;0;0;0;0;0;6;0;20477;2;0;0;0;0;0;7;0;19489;0;0;0;0;8;0;19215;0;0;0;0;9;0;10286;0;0;0;0
15.11.21;22:00:00;1;493;19133;0;2;0;11754;0;0;0;0;3;0;7859;0;0;0;0;4;0;10492;0;0;0;0;5;0;27150;2;0;0;0;0;0;6;0;20477;2;0;0;0;0;0;7;0;19489;0;0;0;0;8;0;19215;0;0;0;0;9;0;10286;0;0;0;0
15.11.21;21:55:00;1;504;19092;0;2;0;11754;0;0;0;0;3;0;7859;0;0;0;0;4;0;10492;0;0;0;0;5;0;27150;2;0;0;0;0;0;6;0;20477;2;0;0;0;0;0;7;0;19489;0;0;0;0;8;0;19215;0;0;0;0;9;0;10286;0;0;0;0
15.11.21;21:50:00;1;507;19049;0;2;0;11754;0;0;0;0;3;0;7859;0;0;0;0;4;0;10492;0;0;0;0;5;0;27150;2;0;0;0;0;0;6;0;20477;2;0;0;0;0;0;7;0;19489;0;0;0;0;8;0;19215;0;0;0;0;9;0;10286;0;0;0;0
15.11.21;21:45:00;1;779;19007;0;2;0;11754;0;0;0;0;3;0;7859;0;0;0;0;4;0;10492;0;0;0;0;5;0;27150;2;0;0;0;0;0;6;0;20477;2;0;0;0;0;0;7;0;19489;0;0;0;0;8;0;19215;0;0;0;0;9;0;10286;0;0;0;0
15.11.21;21:40:00;1;1959;18937;0;2;0;11754;0;0;0;0;3;0;7859;0;0;0;0;4;0;10492;0;0;0;0;5;0;27150;2;0;0;0;0;0;6;0;20477;2;0;0;0;0;0;7;0;19489;0;0;0;0;8;0;19215;0;0;0;0;9;0;10286;0;0;0;0
15.11.21;21:35:00;1;933;18779;0;2;0;11754;0;0;0;0;3;0;7859;0;0;0;0;4;0;10492;0;0;0;0;5;0;27150;2;0;0;0;0;0;6;0;20477;2;0;0;0;0;0;7;0;19489;0;0;0;0;8;0;19215;0;0;0;0;9;0;10286;0;0;0;0
15.11.21;21:30:00;1;513;18713;0;2;0;11754;0;0;0;0;3;0;7859;0;0;0;0;4;0;10492;0;0;0;0;5;0;27150;2;0;0;0;0;0;6;0;20477;2;0;0;0;0;0;7;0;19489;0;0;0;0;8;0;19215;0;0;0;0;9;0;10286;0;0;0;0
15.11.21;21:25:00;1;586;18670;0;2;0;11754;0;0;0;0;3;0;7859;0;0;0;0;4;0;10492;0;0;0;0;5;0;27150;2;0;0;0;0;0;6;0;20477;2;0;0;0;0;0;7;0;19489;0;0;0;0;8;0;19215;0;0;0;0;9;0;10286;0;0;0;0
15.11.21;21:20:00;1;575;18622;0;2;0;11754;0;0;0;0;3;0;7859;0;0;0;0;4;0;10492;0;0;0;0;5;0;27150;2;0;0;0;0;0;6;0;20477;2;0;0;0;0;0;7;0;19489;0;0;0;0;8;0;19215;0;0;0;0;9;0;10286;0;0;0;0
15.11.21;21:15:00;1;584;18574;0;2;0;11754;0;0;0;0;3;0;7859;0;0;0;0;4;0;10492;0;0;0;0;5;0;27150;2;0;0;0;0;0;6;0;20477;2;0;0;0;0;0;7;0;19489;0;0;0;0;8;0;19215;0;0;0;0;9;0;10286;0;0;0;0
15.11.21;21:10:00;1;574;18525;0;2;0;11754;0;0;0;0;3;0;7859;0;0;0;0;4;0;10492;0;0;0;0;5;0;27150;2;0;0;0;0;0;6;0;20477;2;0;0;0;0;0;7;0;19489;0;0;0;0;8;0;19215;0;0;0;0;9;0;10286;0;0;0;0
15.11.21;21:05:00;1;601;18476;0;2;0;11754;0;0;0;0;3;0;7859;0;0;0;0;4;0;10492;0;0;0;0;5;0;27150;2;0;0;0;0;0;6;0;20477;2;0;0;0;0;0;7;0;19489;0;0;0;0;8;0;19215;0;0;0;0;9;0;10286;0;0;0;0
15.11.21;21:00:00;1;592;18426;0;2;0;11754;0;0;0;0;3;0;7859;0;0;0;0;4;0;10492;0;0;0;0;5;0;27150;2;0;0;0;0;0;6;0;20477;2;0;0;0;0;0;7;0;19489;0;0;0;0;8;0;19215;0;0;0;0;9;0;10286;0;0;0;0
15.11.21;20:55:00;1;584;18377;0;2;0;11754;0;0;0;0;3;0;7859;0;0;0;0;4;0;10492;0;0;0;0;5;0;27150;2;0;0;0;0;0;6;0;20477;2;0;0;0;0;0;7;0;19489;0;0;0;0;8;0;19215;0;0;0;0;9;0;10286;0;0;0;0
15.11.21;20:50:00;1;567;18328;0;2;0;11754;0;0;0;0;3;0;7859;0;0;0;0;4;0;10492;0;0;0;0;5;0;27150;2;0;0;0;0;0;6;0;20477;2;0;0;0;0;0;7;0;19489;0;0;0;0;8;0;19215;0;0;0;0;9;0;10286;0;0;0;0
15.11.21;20:45:00;1;573;18281;0;2;0;11754;0;0;0;0;3;0;7859;0;0;0;0;4;0;10492;0;0;0;0;5;0;27150;2;0;0;0;0;0;6;0;20477;2;0;0;0;0;0;7;0;19489;0;0;0;0;8;0;19215;0;0;0;0;9;0;10286;0;0;0;0
15.11.21;20:40:00;1;613;18233;0;2;0;11754;0;0;0;0;3;0;7859;0;0;0;0;4;0;10492;0;0;0;0;5;0;27150;2;0;0;0;0;0;6;0;20477;2;0;0;0;0;0;7;0;19489;0;0;0;0;8;0;19215;0;0;0;0;9;0;10286;0;0;0;0
15.11.21;20:35:00;1;666;18181;0;2;0;11754;0;0;0;0;3;0;7859;0;0;0;0;4;0;10492;0;0;0;0;5;0;27150;2;0;0;0;0;0;6;0;20477;2;0;0;0;0;0;7;0;19489;0;0;0;0;8;0;19215;0;0;0;0;9;0;10286;0;0;0;0
15.11.21;20:30:00;1;665;18126;0;2;0;11754;0;0;0;0;3;0;7859;0;0;0;0;4;0;10492;0;0;0;0;5;0;27150;2;0;0;0;0;0;6;0;20477;2;0;0;0;0;0;7;0;19489;0;0;0;0;8;0;19215;0;0;0;0;9;0;10286;0;0;0;0
15.11.21;20:25:00;1;773;18069;0;2;0;11754;0;0;0;0;3;0;7859;0;0;0;0;4;0;10492;0;0;0;0;5;0;27150;2;0;0;0;0;0;6;0;20477;2;0;0;0;0;0;7;0;19489;0;0;0;0;8;0;19215;0;0;0;0;9;0;10286;0;0;0;0
15.11.21;20:20:00;1;745;18004;0;2;0;11754;0;0;0;0;3;0;7859;0;0;0;0;4;0;10492;0;0;0;0;5;0;27150;2;0;0;0;0;0;6;0;20477;2;0;0;0;0;0;7;0;19489;0;0;0;0;8;0;19215;0;0;0;0;9;0;10286;0;0;0;0
15.11.21;20:15:00;1;674;17941;0;2;0;11754;0;0;0;0;3;0;7859;0;0;0;0;4;0;10492;0;0;0;0;5;0;27150;2;0;0;0;0;0;6;0;20477;2;0;0;0;0;0;7;0;19489;0;0;0;0;8;0;19215;0;0;0;0;9;0;10286;0;0;0;0
15.11.21;20:10:00;1;758;17885;0;2;0;11754;0;0;0;0;3;0;7859;0;0;0;0;4;0;10492;0;0;0;0;5;0;27150;2;0;0;0;0;0;6;0;20477;2;0;0;0;0;0;7;0;19489;0;0;0;0;8;0;19215;0;0;0;0;9;0;10286;0;0;0;0
15.11.21;20:05:00;1;594;17831;0;2;0;11754;0;0;0;0;3;0;7859;0;0;0;0;4;0;10492;0;0;0;0;5;0;27150;2;0;0;0;0;0;6;0;20477;2;0;0;0;0;0;7;0;19489;0;0;0;0;8;0;19215;0;0;0;0;9;0;10286;0;0;0;0
15.11.21;20:00:00;1;613;17781;0;2;0;11754;0;0;0;0;3;0;7859;0;0;0;0;4;0;10492;0;0;0;0;5;0;27150;2;0;0;0;0;0;6;0;20477;2;0;0;0;0;0;7;0;19489;0;0;0;0;8;0;19215;0;0;0;0;9;0;10286;0;0;0;0
15.11.21;19:55:00;1;615;17730;0;2;0;11754;0;0;0;0;3;0;7859;0;0;0;0;4;0;10492;0;0;0;0;5;0;27150;2;0;0;0;0;0;6;0;20477;2;0;0;0;0;0;7;0;19489;0;0;0;0;8;0;19215;0;0;0;0;9;0;10286;0;0;0;0
15.11.21;19:50:00;1;611;17679;0;2;0;11754;0;0;0;0;3;0;7859;0;0;0;0;4;0;10492;0;0;0;0;5;0;27150;2;0;0;0;0;0;6;0;20477;2;0;0;0;0;0;7;0;19489;0;0;0;0;8;0;19215;0;0;0;0;9;0;10286;0;0;0;0
15.11.21;19:45:00;1;684;17627;0;2;0;11754;0;0;0;0;3;0;7859;0;0;0;0;4;0;10492;0;0;0;0;5;0;27150;2;0;0;0;0;0;6;0;20477;2;0;0;0;0;0;7;0;19489;0;0;0;0;8;0;19215;0;0;0;0;9;0;10286;0;0;0;0
15.11.21;19:40:00;1;693;17570;0;2;0;11754;0;0;0;0;3;0;7859;0;0;0;0;4;0;10492;0;0;0;0;5;0;27150;2;0;0;0;0;0;6;0;20477;2;0;0;0;0;0;7;0;19489;0;0;0;0;8;0;19215;0;0;0;0;9;0;10286;0;0;0;0
15.11.21;19:35:00;1;685;17512;0;2;0;11754;0;0;0;0;3;0;7859;0;0;0;0;4;0;10492;0;0;0;0;5;0;27150;2;0;0;0;0;0;6;0;20477;2;0;0;0;0;0;7;0;19489;0;0;0;0;8;0;19215;0;0;0;0;9;0;10286;0;0;0;0
15.11.21;19:30:00;1;658;17454;0;2;0;11754;0;0;0;0;3;0;7859;0;0;0;0;4;0;10492;0;0;0;0;5;0;27150;2;0;0;0;0;0;6;0;20477;2;0;0;0;0;0;7;0;19489;0;0;0;0;8;0;19215;0;0;0;0;9;0;10286;0;0;0;0
15.11.21;19:25:00;1;670;17399;0;2;0;11754;0;0;0;0;3;0;7859;0;0;0;0;4;0;10492;0;0;0;0;5;0;27150;2;0;0;0;0;0;6;0;20477;2;0;0;0;0;0;7;0;19489;0;0;0;0;8;0;19215;0;0;0;0;9;0;10286;0;0;0;0
15.11.21;19:20:00;1;674;17343;0;2;0;11754;0;0;0;0;3;0;7859;0;0;0;0;4;0;10492;0;0;0;0;5;0;27150;2;0;0;0;0;0;6;0;20477;2;0;0;0;0;0;7;0;19489;0;0;0;0;8;0;19215;0;0;0;0;9;0;10286;0;0;0;0
15.11.21;19:15:00;1;649;17286;0;2;0;11754;0;0;0;0;3;0;7859;0;0;0;0;4;0;10492;0;0;0;0;5;0;27150;2;0;0;0;0;0;6;0;20477;2;0;0;0;0;0;7;0;19489;0;0;0;0;8;0;19215;0;0;0;0;9;0;10286;0;0;0;0
15.11.21;19:10:00;1;665;17231;0;2;0;11754;0;0;0;0;3;0;7859;0;0;0;0;4;0;10492;0;0;0;0;5;0;27150;2;0;0;0;0;0;6;0;20477;2;0;0;0;0;0;7;0;19489;0;0;0;0;8;0;19215;0;0;0;0;9;0;10286;0;0;0;0
15.11.21;19:05:00;1;576;17175;0;2;0;11754;0;0;0;0;3;0;7859;0;0;0;0;4;0;10492;0;0;0;0;5;0;27150;2;0;0;0;0;0;6;0;20477;2;0;0;0;0;0;7;0;19489;0;0;0;0;8;0;19215;0;0;0;0;9;0;10286;0;0;0;0
15.11.21;19:00:00;1;585;17127;0;2;0;11754;0;0;0;0;3;0;7859;0;0;0;0;4;0;10492;0;0;0;0;5;0;27150;2;0;0;0;0;0;6;0;20477;2;0;0;0;0;0;7;0;19489;0;0;0;0;8;0;19215;0;0;0;0;9;0;10286;0;0;0;0
15.11.21;18:55:00;1;582;17079;0;2;0;11754;0;0;0;0;3;0;7859;0;0;0;0;4;0;10492;0;0;0;0;5;0;27150;2;0;0;0;0;0;6;0;20477;2;0;0;0;0;0;7;0;19489;0;0;0;0;8;0;19215;0;0;0;0;9;0;10286;0;0;0;0
15.11.21;18:50:00;1;820;17030;0;2;0;11754;0;0;0;0;3;0;7859;0;0;0;0;4;0;10492;0;0;0;0;5;0;27150;2;0;0;0;0;0;6;0;20477;2;0;0;0;0;0;7;0;19489;0;0;0;0;8;0;19215;0;0;0;0;9;0;10286;0;0;0;0
15.11.21;18:45:00;1;1194;16953;0;2;0;11754;0;0;0;0;3;0;7859;0;0;0;0;4;0;10492;0;0;0;0;5;0;27150;2;0;0;0;0;0;6;0;20477;2;0;0;0;0;0;7;0;19489;0;0;0;0;8;0;19215;0;0;0;0;9;0;10286;0;0;0;0
15.11.21;18:40:00;1;1197;16854;0;2;0;11754;0;0;0;0;3;0;7859;0;0;0;0;4;0;10492;0;0;0;0;5;0;27150;2;0;0;0;0;0;6;0;20477;2;0;0;0;0;0;7;0;19489;0;0;0;0;8;0;19215;0;0;0;0;9;0;10286;0;0;0;0
15.11.21;18:35:00;1;1199;16754;0;2;0;11754;0;0;0;0;3;0;7859;0;0;0;0;4;0;10492;0;0;0;0;5;0;27150;2;0;0;0;0;0;6;0;20477;2;0;0;0;0;0;7;0;19489;0;0;0;0;8;0;19215;0;0;0;0;9;0;10286;0;0;0;0
15.11.21;18:30:00;1;1226;16654;0;2;0;11754;0;0;0;0;3;0;7859;0;0;0;0;4;0;10492;0;0;0;0;5;0;27150;2;0;0;0;0;0;6;0;20477;2;0;0;0;0;0;7;0;19489;0;0;0;0;8;0;19215;0;0;0;0;9;0;10286;0;0;0;0
15.11.21;18:25:00;1;1311;16551;0;2;0;11754;0;0;0;0;3;0;7859;0;0;0;0;4;0;10492;0;0;0;0;5;0;27150;2;0;0;0;0;0;6;0;20477;2;0;0;0;0;0;7;0;19489;0;0;0;0;8;0;19215;0;0;0;0;9;0;10286;0;0;0;0
15.11.21;18:20:00;1;1354;16441;0;2;0;11754;0;0;0;0;3;0;7859;0;0;0;0;4;0;10492;0;0;0;0;5;0;27150;2;0;0;0;0;0;6;0;20477;2;0;0;0;0;0;7;0;19489;0;0;0;0;8;0;19215;0;0;0;0;9;0;10286;0;0;0;0
15.11.21;18:15:00;1;1731;16328;0;2;0;11754;0;0;0;0;3;0;7859;0;0;0;0;4;0;10492;0;0;0;0;5;0;27150;2;0;0;0;0;0;6;0;20477;2;0;0;0;0;0;7;0;19489;0;0;0;0;8;0;19215;0;0;0;0;9;0;10286;0;0;0;0
15.11.21;18:10:00;1;1147;16188;0;2;0;11754;0;0;0;0;3;0;7859;0;0;0;0;4;0;10492;0;0;0;0;5;0;27150;2;0;0;0;0;0;6;0;20477;2;0;0;0;0;0;7;0;19489;0;0;0;0;8;0;19215;0;0;0;0;9;0;10286;0;0;0;0
15.11.21;18:05:00;1;1182;16090;0;2;0;11754;0;0;0;0;3;0;7859;0;0;0;0;4;0;10492;0;0;0;0;5;0;27150;2;0;0;0;0;0;6;0;20477;2;0;0;0;0;0;7;0;19489;0;0;0;0;8;0;19215;0;0;0;0;9;0;10286;0;0;0;0
15.11.21;18:00:00;1;1086;15988;0;2;0;11754;0;0;0;0;3;0;7859;0;0;0;0;4;0;10492;0;0;0;0;5;0;27150;2;0;0;0;0;0;6;0;20477;2;0;0;0;0;0;7;0;19489;0;0;0;0;8;0;19215;0;0;0;0;9;0;10286;0;0;0;0
15.11.21;17:55:00;1;1093;15898;0;2;0;11754;0;0;0;0;3;0;7859;0;0;0;0;4;0;10492;0;0;0;0;5;0;27150;2;0;0;0;0;0;6;0;20477;2;0;0;0;0;0;7;0;19489;0;0;0;0;8;0;19215;0;0;0;0;9;0;10286;0;0;0;0
15.11.21;17:50:00;1;1294;15805;0;2;0;11754;0;0;0;0;3;0;7859;0;0;0;0;4;0;10492;0;0;0;0;5;0;27150;2;0;0;0;0;0;6;0;20477;2;0;0;0;0;0;7;0;19489;0;0;0;0;8;0;19215;0;0;0;0;9;0;10286;0;0;0;0
15.11.21;17:45:00;1;1100;15707;0;2;0;11754;0;0;0;0;3;0;7859;0;0;0;0;4;0;10492;0;0;0;0;5;0;27150;2;0;0;0;0;0;6;0;20477;2;0;0;0;0;0;7;0;19489;0;0;0;0;8;0;19215;0;0;0;0;9;0;10286;0;0;0;0
15.11.21;17:40:00;1;1022;15617;0;2;0;11754;0;0;0;0;3;0;7859;0;0;0;0;4;0;10492;0;0;0;0;5;0;27150;2;0;0;0;0;0;6;0;20477;2;0;0;0;0;0;7;0;19489;0;0;0;0;8;0;19215;0;0;0;0;9;0;10286;0;0;0;0
15.11.21;17:35:00;1;1074;15532;0;2;0;11754;0;0;0;0;3;0;7859;0;0;0;0;4;0;10492;0;0;0;0;5;0;27150;2;0;0;0;0;0;6;0;20477;2;0;0;0;0;0;7;0;19489;0;0;0;0;8;0;19215;0;0;0;0;9;0;10286;0;0;0;0
15.11.21;17:30:00;1;1156;15406;0;2;0;11754;0;0;0;0;3;0;7859;0;0;0;0;4;0;10492;0;0;0;0;5;0;27150;2;0;0;0;0;0;6;0;20477;2;0;0;0;0;0;7;0;19489;0;0;0;0;8;0;19215;0;0;0;0;9;0;10286;0;0;0;0
15.11.21;17:25:00;1;1635;15307;0;2;0;11754;0;0;0;0;3;0;7859;0;0;0;0;4;0;10492;0;0;0;0;5;0;27150;2;0;0;0;0;0;6;0;20477;2;0;0;0;0;0;7;0;19489;0;0;0;0;8;0;19215;0;0;0;0;9;0;10286;0;0;0;0
15.11.21;17:20:00;1;3178;15027;0;2;0;11754;0;0;0;0;3;0;7859;0;0;0;0;4;0;10492;0;0;0;0;5;0;27150;2;0;0;0;0;0;6;0;20477;2;0;0;0;0;0;7;0;19489;0;0;0;0;8;0;19215;0;0;0;0;9;0;10286;0;0;0;0
15.11.21;17:15:00;1;1281;14756;0;2;0;11754;0;0;0;0;3;0;7859;0;0;0;0;4;0;10492;0;0;0;0;5;0;27150;2;0;0;0;0;0;6;0;20477;2;0;0;0;0;0;7;0;19489;0;0;0;0;8;0;19215;0;0;0;0;9;0;10286;0;0;0;0
15.11.21;17:10:00;1;1174;14622;0;2;0;11754;0;0;0;0;3;0;7859;0;0;0;0;4;0;10492;0;0;0;0;5;0;27150;2;0;0;0;0;0;6;0;20477;2;0;0;0;0;0;7;0;19489;0;0;0;0;8;0;19215;0;0;0;0;9;0;10286;0;0;0;0
15.11.21;17:05:00;1;1368;14518;0;2;0;11754;0;0;0;0;3;0;7859;0;0;0;0;4;0;10492;0;0;0;0;5;0;27150;2;0;0;0;0;0;6;0;20477;2;0;0;0;0;0;7;0;19489;0;0;0;0;8;0;19215;0;0;0;0;9;0;10286;0;0;0;0
15.11.21;17:00:00;1;2878;14393;0;2;0;11754;0;0;0;0;3;0;7859;0;0;0;0;4;0;10492;0;0;0;0;5;0;27150;2;0;0;0;0;0;6;0;20477;2;0;0;0;0;0;7;0;19489;0;0;0;0;8;0;19215;0;0;0;0;9;0;10286;0;0;0;0
15.11.21;16:55:00;1;2104;14166;0;2;0;11754;0;0;0;0;3;0;7859;0;0;0;0;4;0;10492;0;0;0;0;5;0;27150;2;0;0;0;0;0;6;0;20477;2;0;0;0;0;0;7;0;19489;0;0;0;0;8;0;19215;0;0;0;0;9;0;10286;0;0;0;0
15.11.21;16:50:00;1;2296;13978;0;2;0;11754;0;0;194;10;3;0;7859;6;0;293;17;4;0;10492;0;0;0;0;5;0;27150;2;0;0;0;0;0;6;0;20477;2;0;0;0;0;0;7;0;19489;0;0;0;0;8;0;19215;0;0;0;0;9;0;10286;0;0;0;0
15.11.21;16:45:00;1;3245;13751;0;2;0;11754;6;0;307;14;3;0;7859;6;0;363;17;4;0;10492;2;0;71;15;5;0;27150;2;0;0;0;0;0;6;0;20477;2;0;0;0;0;0;7;0;19489;0;0;0;0;8;0;19215;0;0;0;0;9;0;10286;0;0;0;0
15.11.21;16:40:00;1;1697;13467;0;2;0;11754;6;0;347;14;3;0;7859;6;2;415;17;4;0;10492;1;0;115;15;5;0;27150;26;0;0;303;301;29;6;0;20477;2;0;0;70;70;5;7;0;19489;0;0;157;11;8;0;19215;0;0;160;11;9;0;10286;0;0;222;11
15.11.21;16:35:00;1;2124;13275;0;2;0;11754;6;0;364;15;3;0;7859;6;2;439;18;4;0;10492;1;0;144;16;5;0;27150;23;0;0;391;407;29;6;0;20477;26;0;0;499;495;27;7;0;19489;6;0;292;19;8;0;19215;6;0;299;19;9;0;10286;6;0;312;15
15.11.21;16:30:00;1;1892;13102;0;2;0;11754;6;0;382;15;3;0;7859;6;2;467;18;4;0;10492;1;0;181;16;5;0;27150;26;0;0;415;604;30;6;5;20477;23;0;0;544;539;27;7;0;19489;6;0;364;20;8;0;19215;6;0;370;19;9;0;10286;6;0;376;15
15.11.21;16:25:00;1;2947;12902;0;2;0;11754;6;0;397;16;3;1;7859;6;3;482;18;4;0;10492;1;0;213;17;5;10;27150;1;0;1;412;651;30;6;3;20476;4;0;0;581;568;27;7;0;19489;6;0;415;20;8;0;19215;6;1;412;20;9;1;10286;3;2;421;15
15.11.21;16:20:00;1;2976;12627;0;2;0;11754;6;0;407;16;3;1;7859;6;4;505;19;4;0;10492;3;0;219;17;5;59;27149;1;2;9;382;606;31;6;7;20476;4;0;0;590;571;28;7;0;19489;6;1;438;21;8;0;19215;6;1;443;20;9;0;10286;6;1;477;16
15.11.21;16:15:00;1;2975;12424;0;2;3;11754;6;10;402;17;3;3;7859;4;6;509;19;4;0;10492;3;0;199;18;5;92;27144;4;13;24;373;590;31;6;70;20475;4;0;13;523;506;29;7;2;19489;3;2;453;21;8;1;19215;4;2;457;20;9;2;10286;6;3;496;16
15.11.21;16:10:00;1;3010;12175;0;2;31;11753;6;52;380;17;3;4;7859;6;9;527;19;4;4;10492;3;4;199;18;5;131;27136;4;36;40;373;590;31;6;99;20469;4;0;30;523;505;29;7;11;19489;6;19;457;21;8;9;19215;3;15;460;21;9;1;10286;6;4;530;16
15.11.21;16:05:00;1;2771;11924;0;2;74;11751;4;108;364;18;3;8;7859;6;13;534;19;4;36;10492;3;38;198;18;5;183;27125;4;66;64;373;590;31;6;140;20461;4;15;49;523;505;29;7;48;19488;4;95;437;22;8;50;19214;4;87;424;21;9;4;10286;6;10;544;17
15.11.21;16:00:00;1;2974;11694;0;2;96;11745;4;130;370;18;3;35;7858;6;60;488;20;4;43;10489;3;45;197;19;5;218;27109;4;89;81;373;590;31;6;166;20449;4;27;64;523;505;29;7;78;19484;4;127;450;22;8;88;19209;4;124;390;22;9;5;10285;6;10;553;17
15.11.21;15:55:00;1;3008;11442;0;2;111;11737;4;148;364;18;3;61;7855;4;102;446;20;4;55;10485;3;57;198;19;5;248;27091;4;96;97;373;590;31;6;187;20435;4;41;75;523;505;29;7;85;19478;4;139;474;22;8;105;19202;4;143;434;22;9;10;10285;3;15;551;17
15.11.21;15:50:00;1;2696;11211;0;2;127;11727;4;164;370;19;3;73;7850;4;109;466;21;4;80;10480;3;84;198;19;5;282;27070;4;122;109;373;590;31;6;212;20419;4;52;88;523;505;29;7;123;19471;4;151;457;23;8;116;19193;4;157;441;22;9;22;10284;6;32;551;18
15.11.21;15:45:00;1;2729;10987;0;2;167;11717;4;204;373;19;3;97;7844;4;141;498;21;4;122;10474;5;127;224;19;5;367;27046;4;169;153;373;590;32;6;276;20401;4;89;121;523;505;29;7;186;19460;4;231;428;23;8;188;19184;4;231;447;23;9;94;10282;4;126;509;19
15.11.21;15:40:00;1;2988;10758;0;2;228;11703;4;266;378;20;3;136;7836;4;177;506;21;4;172;10463;5;179;229;20;5;478;27015;4;215;193;403;613;32;6;339;20377;4;115;153;523;506;29;7;289;19445;4;328;466;23;8;280;19168;4;325;470;23;9;145;10274;4;177;517;19
15.11.21;15:35:00;1;2690;10496;0;2;269;11684;4;311;386;20;3;165;7825;4;206;512;22;4;212;10449;5;221;227;20;5;561;26975;4;266;231;408;638;32;6;398;20349;4;147;184;523;528;29;7;391;19421;4;436;469;24;8;377;19145;4;423;476;23;9;197;10262;4;232;526;20
15.11.21;15:30:00;1;2725;10269;0;2;439;11661;4;486;395;21;3;270;7811;4;319;516;22;4;342;10432;5;356;237;20;5;812;26927;4;396;336;413;652;32;6;601;20315;4;241;278;551;545;29;7;646;19388;4;690;462;24;8;590;19114;4;640;480;24;9;264;10246;4;308;538;20
15.11.21;15:25:00;1;3018;10041;0;2;499;11625;4;547;395;21;3;311;7789;4;360;520;23;4;385;10404;5;400;238;21;5;858;26858;4;425;360;421;679;32;6;634;20264;4;257;293;561;552;29;7;618;19335;4;667;475;24;8;592;19065;4;644;482;24;9;288;10224;4;331;536;21
15.11.21;15:20:00;1;3695;9782;0;2;524;11584;4;574;396;22;3;329;7763;4;380;506;23;4;395;10372;5;411;238;21;5;918;26786;4;446;376;421;688;32;6;724;20211;4;291;344;567;566;29;7;718;19283;4;780;468;25;8;693;19015;4;743;477;24;9;304;10200;4;348;525;21
15.11.21;15:15:00;1;3104;9477;0;2;643;11541;4;696;401;23;3;407;7736;4;461;512;23;4;484;10339;5;504;239;21;5;1108;26706;4;558;460;418;682;32;6;820;20151;4;337;376;600;577;29;7;1107;19224;4;1167;485;25;8;1061;18958;4;1130;471;25;9;398;10175;4;443;473;22
15.11.21;15:10:00;1;2803;9232;0;2;701;11487;4;760;402;23;3;443;7701;4;501;512;24;4;550;10298;5;572;241;22;5;1244;26614;4;634;531;422;675;33;6;941;20081;4;396;441;598;576;29;7;1233;19134;4;1293;484;25;8;1214;18873;4;1281;469;25;9;492;10142;4;540;447;22
15.11.21;15:05:00;1;3520;8981;0;2;954;11429;4;1018;401;24;3;530;7665;4;592;515;24;4;636;10253;5;662;244;22;5;1574;26509;4;795;661;420;702;33;6;1155;20002;4;512;538;597;579;30;7;1758;19032;4;1845;486;26;8;1728;18772;4;1820;484;26;9;713;10101;4;768;451;23
15.11.21;15:00:00;1;4103;8695;0;2;1200;11351;4;1274;402;24;3;667;7621;4;733;533;25;4;751;10200;5;783;254;23;5;1963;26375;4;1040;848;422;689;33;6;1451;19903;4;668;687;596;581;30;7;2141;18887;4;2250;484;26;8;2104;18631;4;2205;480;26;9;930;10043;4;1000;517;24
15.11.21;14:55:00;1;4465;8377;0;2;757;11252;4;816;393;24;3;490;7566;4;547;513;25;4;606;10138;5;631;239;23;5;1381;26213;4;701;589;421;683;33;6;1045;19781;4;457;487;596;575;30;7;1455;18708;4;1539;491;27;8;1471;18455;4;1549;473;26;9;750;9965;4;813;535;24
15.11.21;14:50:00;1;4610;7992;0;2;907;11189;4;974;402;25;3;570;7526;4;631;524;25;4;739;10088;5;769;240;23;5;1755;26102;4;896;745;421;695;33;6;1313;19697;4;593;618;591;574;30;7;1526;18589;4;1610;482;27;8;1435;18334;4;1515;477;27;9;698;9903;4;764;554;24
15.11.21;14:45:00;1;4597;7607;0;2;1273;11115;4;1353;406;26;3;811;7479;4;880;523;26;4;982;10028;5;1023;239;24;5;2147;25947;4;1120;933;430;677;34;6;1639;19582;4;761;779;610;581;30;7;1738;18465;4;1837;491;27;8;1739;18217;4;1829;490;27;9;950;9847;4;1024;551;25
15.11.21;14:40:00;1;4930;7225;0;2;789;11010;4;851;401;26;3;500;7412;4;557;506;26;4;684;9946;5;713;239;24;5;1579;25780;4;806;669;414;665;34;6;1184;19453;4;531;553;588;558;30;7;1046;18324;4;1113;471;28;8;1030;18076;4;1094;465;28;9;526;9769;4;581;525;25
15.11.21;14:35:00;1;2238;6648;0;2;1224;10945;4;1302;395;27;3;795;7371;4;866;527;27;4;1001;9889;5;1043;243;24;5;2419;25647;4;1278;1043;423;690;34;6;1777;19352;4;844;843;597;574;31;7;2339;18236;4;2463;480;28;8;2339;17990;4;2461;488;28;9;1283;9725;4;1371;549;27
15.11.21;14:30:00;1;397;6478;0;2;1177;10840;4;1251;401;28;3;769;7303;4;839;519;27;4;947;9804;5;986;238;25;5;2093;25444;4;1099;907;419;685;35;6;1621;19200;4;749;768;607;573;31;7;1813;18040;4;1904;484;29;8;1781;17793;4;1874;464;29;9;985;9620;4;1060;543;27
15.11.21;14:25:00;1;346;6445;0;2;1366;10741;4;1449;398;29;3;888;7238;4;962;542;28;4;1085;9724;5;1130;246;25;5;2755;25271;4;1455;1201;415;696;35;6;1982;19068;4;937;952;606;577;31;7;2070;17889;4;2175;464;29;8;2092;17646;4;2192;468;29;9;1168;9538;4;1248;524;28
15.11.21;14:20:00;1;376;6416;0;2;1861;10629;4;1965;403;30;3;1254;7165;4;1342;525;28;4;1353;9634;5;1409;251;25;5;3636;25037;4;1970;1591;423;693;35;6;2719;18891;4;1331;1301;608;579;31;7;3004;17717;4;3152;465;30;8;3092;17473;4;3245;475;29;9;1608;9441;4;1709;534;28
15.11.21;14:15:00;1;425;6385;0;2;2073;10476;4;2188;417;31;3;1308;7062;4;1398;535;29;4;1327;9522;5;1383;253;25;5;3926;24730;4;2116;1730;420;695;35;6;2828;18661;4;1365;1376;609;582;31;7;2932;17468;4;3072;468;30;8;2777;17218;4;2907;459;30;9;1454;9307;4;1544;532;29
15.11.21;14:10:00;1;260;6352;0;2;2050;10298;4;2158;405;31;3;1280;6949;4;1365;507;29;4;1365;9409;5;1422;252;26;5;3854;24414;4;2090;1688;418;693;35;6;2958;18417;4;1443;1440;598;586;31;7;3060;17214;4;3208;467;30;8;2942;16976;4;3082;452;30;9;1545;9180;4;1643;530;29